Flag for Western Sahara Weather past 2 weeks in El Aaiún, Western Sahara

Now
70 °F

Partly sunny.


Feels Like: 70 °F
Forecast: 58 / 76 °F
Wind: 10 mph from North

Location: Laayoune/Hassan Isl

Current Time: May 27, 2015 at 11:52:38 AM

Latest Report: May 27, 2015 at 11:00 AM


Visibility: N/A

Pressure: 30.04 "Hg

Humidity: 60%

Dew point: 55 °F

Location of El AaiúnLocation

Historic Weather in El Aaiún — Graph

°F

El Aaiún temperature yesterday

Maximum temperature yesterday: 75 °F (at 4:00 PM)
Minimum temperature yesterday: 61 °F (at 4:00 AM)
Average temperature yesterday: 67 °F

Past Weeks' High & Low Weather Summary

 TemperatureHumidityPressure
High115 °F (May 14, 3:00 PM)88% (May 18, 4:00 AM)30.12 "Hg (May 18, 4:00 AM)
Low61 °F (May 26, 4:00 AM)3% (May 13, 1:00 PM)29.83 "Hg (May 13, 5:00 PM)
Average73 °F57%30.02 "Hg
* Reported May 12 11:00 AM — May 27 11:00 AM, El Aaiún, Weather by CustomWeather, © 2015

Note: Actual official high and low records may vary slightly from our data, if they occured in-between our weather recording intervals... More about our weather records

Advertising

El Aaiún weather history for previous 24 hours

 ConditionsComfort  
Time TempWeatherWind HumidityBarometerVisibility
11:00 AM
Wed, May 27
70 °FPartly sunny.10 mph60%30.04 "HgN/A
10:00 AM68 °FBroken clouds.8 mph69%30.07 "HgN/A
9:00 AM66 °FPartly sunny.7 mph73%30.04 "HgN/A
8:00 AM64 °FPartly sunny.6 mph78%30.04 "Hg5 mi
7:00 AM63 °FOvercast.5 mph83%30.01 "Hg5 mi
6:00 AM63 °FOvercast.3 mph83%30.01 "Hg5 mi
5:00 AM61 °FPassing clouds.6 mph88%30.01 "HgN/A
4:00 AM61 °FPassing clouds.7 mph88%30.01 "HgN/A
3:00 AM63 °FPassing clouds.7 mph83%30.04 "HgN/A
2:00 AM63 °FClear.8 mph83%30.04 "Hg10 mi
1:00 AM63 °FClear.3 mph83%30.07 "Hg10 mi
12:00 AM64 °FClear.12 mph78%30.07 "Hg10 mi
11:00 PM
Tue, May 26
66 °FClear.15 mph73%30.07 "Hg10 mi
10:00 PM66 °FClear.13 mph73%30.07 "Hg10 mi
9:00 PM68 °FSunny.17 mph64%30.04 "Hg10 mi
8:00 PM70 °FSunny.17 mph64%30.04 "Hg10 mi
7:00 PM72 °FSunny.17 mph57%30.01 "Hg10 mi
6:00 PM73 °FSunny.17 mph47%30.01 "Hg10 mi
4:00 PM75 °FPartly sunny.15 mph54%30.04 "HgN/A
3:00 PM73 °FPartly sunny.16 mph57%30.04 "HgN/A
2:00 PM73 °FPartly sunny.16 mph57%30.07 "HgN/A
1:00 PM73 °FPartly sunny.15 mph57%30.07 "HgN/A
12:00 PM72 °FPartly sunny.10 mph57%30.09 "HgN/A
11:00 AM70 °FPartly sunny.10 mph64%30.09 "HgN/A
Weather by CustomWeather, © 2015

See weather overviewHow to use our weather pages